TimeCDT,TemperatureF,Dew PointF,Humidity,Sea Level PressureIn,VisibilityMPH,Wind Direction,Wind SpeedMPH,Gust SpeedMPH,PrecipitationIn,Events,Conditions,WindDirDegrees,DateUTC
12:52 AM,16.0,10.0,77,30.30,10.0,NW,4.6,-,N/A,,Clear,320,2013-04-01 05:52:00
1:52 AM,12.9,8.1,81,30.32,10.0,Calm,Calm,-,N/A,,Clear,0,2013-04-01 06:52:00
2:52 AM,10.0,6.1,84,30.33,10.0,Calm,Calm,-,N/A,,Clear,0,2013-04-01 07:52:00
3:52 AM,12.9,9.0,84,30.33,10.0,NNW,3.5,-,N/A,,Clear,340,2013-04-01 08:52:00
4:52 AM,10.9,8.1,88,30.33,10.0,North,5.8,-,N/A,,Clear,360,2013-04-01 09:52:00
5:52 AM,12.0,8.1,84,30.34,10.0,Calm,Calm,-,N/A,,Clear,0,2013-04-01 10:52:00
6:52 AM,9.0,7.0,92,30.36,10.0,Calm,Calm,-,N/A,,Clear,0,2013-04-01 11:52:00
7:52 AM,12.9,10.0,88,30.36,10.0,Calm,Calm,-,N/A,,Scattered Clouds,0,2013-04-01 12:52:00
8:52 AM,19.9,14.0,78,30.35,10.0,North,3.5,-,N/A,,Clear,10,2013-04-01 13:52:00
9:52 AM,24.1,16.0,71,30.35,10.0,Calm,Calm,-,N/A,,Clear,0,2013-04-01 14:52:00
10:52 AM,27.0,12.0,53,30.35,10.0,Calm,Calm,-,N/A,,Clear,0,2013-04-01 15:52:00
11:52 AM,30.0,10.9,45,30.35,10.0,North,4.6,-,N/A,,Clear,360,2013-04-01 16:52:00
12:52 PM,33.1,12.9,43,30.34,10.0,NW,9.2,-,N/A,,Clear,320,2013-04-01 17:52:00
1:52 PM,36.0,12.9,39,30.32,10.0,Variable,5.8,-,N/A,,Clear,0,2013-04-01 18:52:00
2:52 PM,37.9,12.9,36,30.30,10.0,West,6.9,-,N/A,,Clear,280,2013-04-01 19:52:00
3:52 PM,39.0,12.0,33,30.28,10.0,Variable,5.8,-,N/A,,Clear,0,2013-04-01 20:52:00
4:52 PM,39.9,12.0,32,30.27,10.0,West,5.8,-,N/A,,Mostly Cloudy,280,2013-04-01 21:52:00
5:52 PM,41.0,12.0,31,30.26,10.0,Variable,4.6,-,N/A,,Mostly Cloudy,0,2013-04-01 22:52:00
6:52 PM,39.9,12.0,32,30.26,10.0,NNE,4.6,-,N/A,,Clear,20,2013-04-01 23:52:00
7:52 PM,35.1,12.0,39,30.26,10.0,ENE,5.8,-,N/A,,Clear,60,2013-04-02 00:52:00
8:52 PM,30.0,10.9,45,30.26,10.0,ENE,6.9,-,N/A,,Clear,60,2013-04-02 01:52:00
9:52 PM,30.0,10.9,45,30.26,10.0,ENE,6.9,-,N/A,,Clear,70,2013-04-02 02:52:00
10:52 PM,24.1,10.0,55,30.27,10.0,SSE,4.6,-,N/A,,Clear,160,2013-04-02 03:52:00
11:52 PM,19.9,9.0,62,30.27,10.0,East,5.8,-,N/A,,Clear,90,2013-04-02 04:52:00